User: anonymous   Login
Location: Unspecified
(0.0000°N, 0.0000°E)
Time: 07:48:04
(UTC+00:00)
Language:

NOAA 19 - Orbit

View from above orbital plane
View from above orbital plane
View from above satellite
View from above satellite

Ground track
Ground track

The orbit data is extracted from the following two-line orbital elements,

1 33591U 09005A   23342.89320446  .00000177  00000-0  11960-3 0  9990
2 33591  99.0773  31.4216 0014754 110.5734 249.7022 14.12882621764353
Epoch (UTC): 08 December 2023 21:26:12
Eccentricity: 0.0014754
inclination: 99.0773°
perigee height: 839 km
apogee height: 860 km
right ascension of ascending node: 31.4216°
argument of perigee: 110.5734°
revolutions per day: 14.12882621
mean anomaly at epoch: 249.7022°
orbit number at epoch: 76435

The dashed part of the orbit path shows where the satellite is in the earth's shadow,  

DLR